DW3693 Weather Reports


time (UTC)temp
C
wind
direction
speed
KPH
gust
KPH
rain 1hr
cm
rain 24hr
cm
rain mn
cm
humidity
%
barometer
mb
20260508115016 13 293 4.8 11.3 0.00 0.00 0.00 63 1016.4
20260508114016 13 293 4.8 22.5 0.00 0.00 0.00 62 1016.4
20260508113016 13 270 4.8 17.7 0.00 0.00 0.00 61 1016.3
20260508112017 13 270 1.6 3.2 0.00 0.00 0.00 59 1016.1
20260508111016 13 248 3.2 9.7 0.00 0.00 0.00 58 1016.1
20260508110036 13 248 3.2 11.3 0.00 0.00 0.00 58 1016.0
20260508105017 12 203 1.6 6.4 0.00 0.00 0.00 60 1015.9
20260508104016 12 315 1.6 3.2 0.00 0.00 0.00 62 1015.9
20260508103016 12 338 1.6 4.8 0.00 0.00 0.00 60 1015.9
20260508102016 12 0.0 3.2 0.00 0.00 0.00 59 1015.9
20260508101016 13 45 1.6 4.8 0.00 0.00 0.00 58 1015.9
20260508100018 12 45 1.6 6.4 0.00 0.00 0.00 58 1015.9
20260508095016 12 293 1.6 4.8 0.00 0.00 0.00 59 1015.9
20260508094016 12 0.0 3.2 0.00 0.00 0.00 59 1015.9
20260508093016 13 293 1.6 8.0 0.00 0.00 0.00 57 1015.8
20260508092015 12 0.0 4.8 0.00 0.00 0.00 57 1015.7
20260508091017 13 225 1.6 6.4 0.00 0.00 0.00 55 1015.8
20260508090015 13 270 1.6 6.4 0.00 0.00 0.00 55 1015.7
20260508085016 13 270 1.6 3.2 0.00 0.00 0.00 54 1015.7
20260508084015 14 270 3.2 8.0 0.00 0.00 0.00 53 1015.6
20260508083035 14 293 4.8 16.1 0.00 0.00 0.00 51 1015.7
20260508082016 14 270 3.2 6.4 0.00 0.00 0.00 50 1015.6
20260508081016 13 270 4.8 9.7 0.00 0.00 0.00 51 1015.6
20260508080015 13 203 1.6 4.8 0.00 0.00 0.00 51 1015.6
20260508075036 14 248 1.6 3.2 0.00 0.00 0.00 48 1015.6
20260508074036 14 270 1.6 4.8 0.00 0.00 0.00 47 1015.6
20260508073015 14 270 1.6 4.8 0.00 0.00 0.00 47 1015.7
20260508072017 15 293 1.6 8.0 0.00 0.00 0.00 45 1015.6
20260508071017 15 248 4.8 8.0 0.00 0.00 0.00 45 1015.6
20260508070017 15 270 4.8 9.7 0.00 0.00 0.00 44 1015.6
20260508065017 15 293 3.2 8.0 0.00 0.00 0.00 44 1015.7
20260508064017 15 270 4.8 14.5 0.00 0.00 0.00 45 1015.6
20260508063017 15 270 1.6 4.8 0.00 0.00 0.00 45 1015.7
20260508062036 15 270 6.4 16.1 0.00 0.00 0.00 44 1015.6
20260508061017 15 270 4.8 11.3 0.00 0.00 0.00 46 1015.6
20260508060018 15 270 4.8 17.7 0.00 0.00 0.00 45 1015.8
20260508055037 15 315 6.4 19.3 0.00 0.00 0.00 45 1015.7
20260508054017 16 248 4.8 16.1 0.00 0.00 0.00 45 1015.5
20260508053017 16 270 4.8 11.3 0.00 0.00 0.00 46 1015.6
20260508052017 15 23 1.6 6.4 0.00 0.00 0.00 48 1015.6
20260508051037 16 293 3.2 11.3 0.00 0.00 0.00 47 1015.6
20260508050017 16 293 3.2 9.7 0.00 0.00 0.00 48 1015.6
20260508045037 16 293 3.2 11.3 0.00 0.00 0.00 48 1015.5
20260508044017 16 293 3.2 9.7 0.00 0.00 0.00 46 1015.5
20260508043018 16 270 3.2 14.5 0.00 0.00 0.00 47 1015.5
20260508042041 16 293 3.2 6.4 0.00 0.00 0.00 47 1015.4
20260508041041 16 180 1.6 4.8 0.00 0.00 0.00 46 1015.4
20260508040016 16 293 4.8 9.7 0.00 0.00 0.00 45 1015.4
20260508035018 16 293 3.2 11.3 0.00 0.00 0.00 45 1015.2
20260508034017 16 270 4.8 16.1 0.00 0.00 0.00 44 1015.1
20260508033017 16 203 3.2 6.4 0.00 0.00 0.00 44 1015.1
20260508032016 16 270 1.6 4.8 0.00 0.00 0.00 44 1014.8
20260508031016 16 293 1.6 3.2 0.00 0.00 0.00 41 1014.8
20260508030017 17 293 1.6 4.8 0.00 0.00 0.00 39 1014.7
20260508025017 17 270 1.6 8.0 0.00 0.00 0.00 37 1014.7
20260508024016 17 293 1.6 6.4 0.00 0.00 0.00 35 1014.7
20260508023016 17 315 3.2 11.3 0.00 0.00 0.00 35 1014.7
20260508022016 18 248 3.2 6.4 0.00 0.00 0.00 31 1014.7
20260508021016 18 270 1.6 8.0 0.00 0.00 0.00 30 1014.6
20260508020016 18 293 3.2 14.5 0.00 0.00 0.00 30 1014.6
20260508015016 19 315 4.8 17.7 0.00 0.00 0.00 30 1014.7
20260508014016 20 248 4.8 17.7 0.00 0.00 0.00 31 1014.7
20260508013016 20 203 1.6 4.8 0.00 0.00 0.00 31 1014.7
20260508012016 20 270 8.0 16.1 0.00 0.00 0.00 28 1014.9
20260508011016 20 270 6.4 20.9 0.00 0.00 0.00 28 1014.9
20260508010016 20 270 6.4 24.1 0.00 0.00 0.00 27 1014.8
20260508005016 20 270 3.2 11.3 0.00 0.00 0.00 29 1015.0
20260508004036 20 270 6.4 19.3 0.00 0.00 0.00 27 1014.9
20260508003017 20 270 6.4 17.7 0.00 0.00 0.00 25 1014.8
20260508002016 21 203 1.6 6.4 0.00 0.00 0.00 27 1014.8
20260508001016 20 270 6.4 22.5 0.00 0.00 0.00 24 1014.7
20260508000016 21 270 8.0 24.1 0.00 0.00 0.00 22 1014.7
20260507235036 21 270 6.4 14.5 0.00 0.00 0.00 26 1014.9
20260507234016 21 270 6.4 16.1 0.00 0.00 0.00 22 1014.8
20260507233016 21 248 8.0 22.5 0.00 0.00 0.00 22 1014.8
20260507232017 21 270 11.3 24.1 0.00 0.00 0.00 21 1015.0
20260507231016 20 293 9.7 30.6 0.00 0.00 0.00 24 1015.0
20260507230036 20 225 9.7 20.9 0.00 0.00 0.00 25 1015.1
20260507225016 21 270 8.0 22.5 0.00 0.00 0.00 29 1015.1
20260507224018 21 248 9.7 24.1 0.00 0.00 0.00 28 1015.3
20260507223016 20 270 11.3 29.0 0.00 0.00 0.00 26 1015.5
20260507222016 21 270 11.3 25.7 0.00 0.00 0.00 28 1015.5
20260507221016 21 270 8.0 22.5 0.00 0.00 0.00 29 1015.7
20260507220016 20 293 9.7 24.1 0.00 0.00 0.00 33 1015.6
20260507215017 20 248 8.0 20.9 0.00 0.00 0.00 34 1015.8
20260507214015 20 270 11.3 24.1 0.00 0.00 0.00 31 1015.8
20260507213016 20 225 8.0 19.3 0.00 0.00 0.00 37 1015.9
20260507212017 20 338 9.7 27.4 0.00 0.00 0.00 42 1016.0
20260507211037 20 225 8.0 19.3 0.00 0.00 0.00 39 1016.0
20260507210015 20 270 8.0 19.3 0.00 0.00 0.00 42 1016.1
20260507205017 20 248 6.4 27.4 0.00 0.00 0.00 48 1016.1
20260507204016 20 270 8.0 25.7 0.00 0.00 0.00 45 1016.1
20260507203015 19 270 9.7 35.4 0.00 0.00 0.00 44 1016.2
20260507202016 19 315 9.7 22.5 0.00 0.00 0.00 46 1016.2
20260507201015 19 315 11.3 27.4 0.00 0.00 0.00 47 1016.4
20260507200015 18 315 8.0 37.0 0.00 0.00 0.00 50 1016.5
20260507195016 18 315 9.7 24.1 0.00 0.00 0.00 46 1016.8
20260507194021 18 0 8.0 22.5 0.00 0.00 0.00 47 1016.5
20260507193037 18 270 8.0 25.7 0.00 0.00 0.00 48 1016.9
20260507192017 18 270 8.0 20.9 0.00 0.00 0.00 51 1017.1
20260507191038 18 270 6.4 24.1 0.00 0.00 0.00 55 1017.2
20260507190016 17 225 8.0 17.7 0.00 0.00 0.00 54 1017.3
20260507185017 17 248 6.4 16.1 0.00 0.00 0.00 55 1017.3
20260507184017 17 270 6.4 17.7 0.00 0.00 0.00 54 1017.6
20260507183017 17 158 6.4 14.5 0.00 0.00 0.00 55 1017.5
20260507182557 16 0 4.8 14.5 0.00 0.00 0.00 60 1017.6
20260507181517 16 315 8.0 19.3 0.00 0.00 0.00 58 1017.4
20260507180517 16 293 6.4 24.1 0.00 0.00 0.00 61 1017.4
20260507175517 16 270 8.0 19.3 0.00 0.00 0.00 59 1017.3
20260507174517 16 270 6.4 17.7 0.00 0.00 0.00 61 1017.5
20260507173557 15 270 6.4 22.5 0.00 0.00 0.00 62 1017.6
20260507172517 15 270 6.4 17.7 0.00 0.00 0.00 62 1017.8
20260507171517 15 270 6.4 19.3 0.00 0.00 0.00 65 1018.1
20260507170517 15 270 8.0 24.1 0.00 0.00 0.00 64 1018.1
20260507165516 14 158 4.8 16.1 0.00 0.00 0.00 66 1018.3
20260507164536 15 270 4.8 16.1 0.00 0.00 0.00 67 1018.0
20260507164017 14 293 4.8 9.7 0.00 0.00 0.00 68 1018.3
20260507163017 13 270 4.8 11.3 0.00 0.00 0.00 69 1018.5
20260507162016 13 270 8.0 20.9 0.00 0.00 0.00 67 1018.4
20260507161017 13 270 8.0 20.9 0.00 0.00 0.00 71 1018.4
20260507160018 13 270 4.8 29.0 0.00 0.00 0.00 73 1018.4
20260507155017 13 293 6.4 20.9 0.00 0.00 0.00 72 1018.5
20260507154037 13 270 6.4 24.1 0.00 0.00 0.00 72 1018.6
20260507153017 12 293 8.0 19.3 0.00 0.00 0.00 74 1018.4
20260507152023 12 338 6.4 20.9 0.00 0.00 0.00 75 1018.5
20260507151037 12 293 6.4 24.1 0.00 0.00 0.00 75 1018.7
20260507150036 12 315 4.8 20.9 0.00 0.00 0.00 76 1018.7
20260507145017 12 293 6.4 17.7 0.00 0.00 0.00 76 1018.9
20260507144037 12 225 1.6 4.8 0.00 0.00 0.00 78 1018.8
20260507143018 11 203 1.6 6.4 0.00 0.00 0.00 79 1018.9
20260507142017 11 248 6.4 17.7 0.00 0.00 0.00 80 1018.8
20260507141016 11 293 4.8 14.5 0.00 0.00 0.00 81 1018.6
20260507140016 11 0 4.8 20.9 0.00 0.00 0.00 80 1018.4
20260507135057 11 293 8.0 22.5 0.00 0.00 0.00 80 1018.2
20260507134016 11 270 6.4 19.3 0.00 0.00 0.00 81 1018.1
20260507133017 11 270 3.2 9.7 0.00 0.00 0.00 81 1018.1
20260507132016 11 270 4.8 11.3 0.00 0.00 0.00 81 1018.1
20260507131016 11 270 6.4 20.9 0.00 0.00 0.00 81 1018.3
20260507130016 11 293 4.8 14.5 0.00 0.00 0.00 81 1018.2
20260507125016 11 270 8.0 20.9 0.00 0.00 0.00 81 1018.1
20260507124016 11 203 3.2 8.0 0.00 0.00 0.00 81 1018.2
20260507123016 11 270 4.8 17.7 0.00 0.00 0.00 81 1018.0
20260507122016 11 270 4.8 17.7 0.00 0.00 0.00 80 1018.2
20260507121016 11 293 4.8 11.3 0.00 0.00 0.00 80 1018.2
20260507120016 11 315 6.4 17.7 0.00 0.00 0.00 80 1018.2